GW2563 Weather Reports


time (UTC)temp
C
wind
direction
speed
KPH
gust
KPH
rain 1hr
cm
rain 24hr
cm
rain mn
cm
humidity
%
barometer
mb
20260507151522 10 207 8.0 17.7 0.13 2.06 0.15 47 1017.9
20260507150521 10 217 8.0 17.7 0.13 2.03 0.13 48 1017.5
20260507145521 9 211 8.0 17.7 0.10 2.01 0.10 48 1017.4
20260507144523 9 221 8.0 17.7 0.10 2.01 0.10 48 1017.4
20260507143521 8 215 9.7 17.7 0.05 1.96 0.05 48 1017.1
20260507142522 8 228 9.7 17.7 0.05 1.96 0.05 50 1017.0
20260507141522 7 214 8.0 16.1 0.03 1.93 0.03 50 1017.3
20260507140609 7 212 9.7 16.1 0.00 1.91 0.00 50 1017.4
20260507135521 7 234 9.7 16.1 0.00 1.91 0.00 50 1017.4
20260507134519 6 234 8.0 16.1 0.00 1.91 0.00 51 1016.6
20260507133520 6 215 9.7 16.1 0.00 1.91 0.00 51 1016.6
20260507132519 5 230 8.0 14.5 0.00 1.91 0.00 53 1016.2
20260507131519 5 222 6.4 14.5 0.00 1.91 0.00 53 1016.0
20260507130522 5 208 8.0 14.5 0.00 1.91 0.00 54 1015.8
20260507125521 4 202 8.0 14.5 0.00 1.91 0.00 54 1015.8
20260507124521 3 228 8.0 11.3 0.00 1.91 0.00 55 1015.7
20260507123520 3 210 8.0 11.3 0.00 1.91 0.00 57 1015.3
20260507122521 2 232 8.0 11.3 0.00 1.91 0.00 59 1015.0
20260507121520 2 208 8.0 11.3 0.00 1.91 0.00 61 1014.8
20260507120521 2 202 8.0 11.3 0.00 1.91 0.00 62 1014.9
20260507115520 1 205 8.0 11.3 0.00 1.91 0.00 63 1014.6
20260507114522 1 199 6.4 11.3 0.00 1.91 0.00 63 1014.6
20260507113521 1 216 8.0 11.3 0.00 1.91 0.00 63 1014.6
20260507112520 1 205 6.4 11.3 0.00 1.91 0.00 63 1014.6
20260507111520 1 216 6.4 11.3 0.00 1.91 0.00 64 1013.8
20260507110522 1 217 6.4 11.3 0.00 1.91 0.00 63 1013.7
20260507105522 1 201 6.4 11.3 0.00 1.91 0.00 63 1013.7
20260507104520 2 220 4.8 11.3 0.00 1.91 0.00 63 1014.1
20260507103545 2 221 6.4 11.3 0.00 1.91 0.00 63 1014.1
20260507102521 1 232 8.0 11.3 0.00 1.91 0.00 64 1014.0
20260507101522 1 209 6.4 11.3 0.00 1.91 0.00 65 1014.4
20260507100521 1 217 8.0 11.3 0.00 1.91 0.00 66 1014.5
20260507095520 1 222 8.0 11.3 0.00 1.91 0.00 66 1014.5
20260507094521 1 223 6.4 11.3 0.00 1.91 0.00 67 1014.5
20260507093543 1 224 6.4 11.3 0.00 1.91 0.00 66 1014.5
20260507092522 1 195 6.4 11.3 0.00 1.91 0.00 66 1014.5
20260507091520 1 213 8.0 11.3 0.00 1.91 0.00 68 1014.5
20260507090520 1 210 6.4 11.3 0.00 1.91 0.00 70 1014.2
20260507085521 1 207 8.0 16.1 0.00 1.91 0.00 71 1014.1
20260507084520 1 219 8.0 16.1 0.00 1.91 0.00 72 1014.1
20260507083520 1 203 9.7 16.1 0.00 1.91 0.00 72 1014.1
20260507082520 1 228 8.0 16.1 0.00 1.91 0.00 73 1014.4
20260507081519 1 203 6.4 16.1 0.00 1.91 0.00 74 1014.4
20260507080521 1 215 8.0 16.1 0.00 1.91 0.00 76 1014.5
20260507075523 1 210 9.7 16.1 0.00 1.91 0.00 78 1014.8
20260507074520 1 231 8.0 14.5 0.00 1.91 0.00 81 1016.2
20260507073520 1 203 9.7 14.5 0.00 1.91 0.00 81 1016.5
20260507072520 1 227 8.0 14.5 0.00 1.91 0.00 82 1016.5
20260507071520 0 228 9.7 14.5 0.00 1.91 0.00 85 1015.1
20260507070522 0 244 6.4 14.5 0.00 1.91 0.00 87 1014.8
20260507065520 0 209 9.7 12.9 0.00 1.91 0.00 89 1014.8
20260507064521 0 222 6.4 11.3 0.00 1.91 0.00 90 1015.1
20260507063545 0 200 8.0 11.3 0.00 1.91 0.00 90 1015.1
20260507062521 0 228 8.0 9.7 0.00 1.91 0.00 91 1015.1
20260507061520 0 203 6.4 8.0 0.00 1.91 0.00 92 1014.5
20260507060522 0 226 4.8 6.4 0.00 1.91 0.00 93 1014.2
20260507055520 0 205 3.2 8.0 0.00 1.91 1.91 93 1013.9
20260507054520 0 239 3.2 8.0 0.00 1.91 1.91 93 1014.3
20260507053521 0 227 3.2 8.0 0.00 1.91 1.91 93 1014.4
20260507052520 0 222 3.2 9.7 0.00 1.91 1.91 93 1014.4
20260507051519 0 233 1.6 11.3 0.00 1.91 1.91 92 1014.7
20260507050519 0 214 3.2 11.3 0.00 1.91 1.91 92 1014.8
20260507045519 0 213 4.8 11.3 0.00 1.91 1.91 92 1014.8
20260507044543 0 230 3.2 11.3 0.00 1.91 1.91 91 1014.3
20260507043542 0 203 3.2 11.3 0.00 1.91 1.91 91 1014.0
20260507042519 0 206 4.8 11.3 0.00 1.91 1.91 91 1014.0
20260507041521 0 192 4.8 11.3 0.00 1.91 1.91 91 1014.0
20260507040521 0 214 4.8 11.3 0.00 1.91 1.91 91 1014.0
20260507035520 0 211 4.8 11.3 0.00 1.91 1.91 91 1014.0
20260507034521 1 206 4.8 11.3 0.00 1.91 1.91 91 1014.8
20260507033521 1 180 6.4 11.3 0.00 1.91 1.91 91 1014.9
20260507032544 0 199 3.2 9.7 0.00 1.91 1.91 91 1014.1
20260507031541 0 178 4.8 9.7 0.00 1.91 1.91 91 1013.8
20260507030521 0 202 3.2 9.7 0.00 1.91 1.91 92 1013.7
20260507025545 0 196 4.8 9.7 0.00 1.91 1.91 92 1013.7
20260507024521 0 178 3.2 8.0 0.03 1.91 1.91 92 1013.0
20260507023520 0 157 4.8 8.0 0.03 1.91 1.91 92 1013.2
20260507022521 0 182 1.6 8.0 0.03 1.91 1.91 91 1013.0
20260507021521 1 151 1.6 8.0 0.05 1.91 1.91 88 1013.0
20260507020520 1 0.0 9.7 0.05 1.91 1.91 86 1013.4
20260507015523 2 182 3.2 9.7 0.05 1.91 1.91 82 1013.8
20260507014521 2 195 3.2 9.7 0.05 1.88 1.88 82 1013.6
20260507013520 2 164 3.2 9.7 0.05 1.88 1.88 82 1013.7
20260507012545 2 177 3.2 9.7 0.08 1.88 1.88 81 1013.7
20260507011521 2 144 3.2 9.7 0.05 1.85 1.85 81 1013.9
20260507010524 3 172 4.8 9.7 0.08 1.85 1.85 79 1014.0
20260507005519 3 211 3.2 9.7 0.10 1.85 1.85 79 1014.0
20260507004521 3 170 3.2 9.7 0.08 1.83 1.83 77 1014.0
20260507003545 3 180 3.2 9.7 0.13 1.83 1.83 74 1014.4
20260507002522 3 186 3.2 9.7 0.13 1.80 1.80 75 1014.4
20260507001519 3 165 4.8 9.7 0.18 1.80 1.80 76 1014.2
20260507000520 3 184 4.8 9.7 0.20 1.78 1.78 76 1014.2
20260506235520 3 200 3.2 11.3 0.23 1.75 1.75 76 1014.3
20260506234546 3 242 4.8 11.3 0.25 1.75 1.75 73 1014.4
20260506233545 3 202 4.8 11.3 0.25 1.70 1.70 74 1014.4
20260506232520 3 169 3.2 11.3 0.25 1.68 1.68 74 1014.5
20260506231522 3 224 3.2 11.3 0.25 1.63 1.63 75 1014.7
20260506230520 3 237 4.8 11.3 0.23 1.60 1.57 74 1014.8
20260506225544 3 209 3.2 11.3 0.23 1.55 1.52 75 1014.3
20260506224521 2 232 1.6 11.3 0.25 1.55 1.50 81 1014.3
20260506223522 2 214 3.2 11.3 0.25 1.52 1.45 79 1014.6
20260506222518 2 138 3.2 11.3 0.28 1.50 1.42 80 1014.2
20260506221519 2 198 1.6 11.3 0.28 1.45 1.37 79 1014.2
20260506220521 2 215 6.4 11.3 0.33 1.45 1.35 78 1014.5
20260506215543 2 180 3.2 9.7 0.36 1.42 1.30 81 1014.5
20260506214519 2 200 4.8 9.7 0.36 1.37 1.24 79 1015.0
20260506213519 2 194 3.2 9.7 0.41 1.35 1.19 81 1014.8
20260506212521 2 144 3.2 6.4 0.46 1.32 1.14 81 1014.5
20260506211520 2 103 1.6 11.3 0.51 1.27 1.09 79 1015.0
20260506210520 3 195 3.2 11.3 0.53 1.22 1.02 78 1015.4
20260506205521 2 155 3.2 11.3 0.58 1.14 0.94 81 1015.3
20260506204518 2 164 1.6 11.3 0.69 1.09 0.89 82 1015.3
20260506203519 1 175 1.6 11.3 0.66 1.02 0.79 82 1015.0
20260506202521 3 48 1.6 11.3 0.56 0.91 0.69 81 1015.8
20260506201521 2 87 4.8 11.3 0.48 0.81 0.58 79 1015.7
20260506200524 2 77 4.8 11.3 0.41 0.71 0.48 83 1015.6
20260506195543 1 45 6.4 11.3 0.28 0.61 0.36 88 1015.1
20260506194521 2 45 0.0 1.6 0.13 0.46 0.20 84 1015.6
20260506193519 2 0.0 0.0 0.05 0.41 0.13 82 1015.7
20260506192524 6 0.0 0.0 0.05 0.41 0.13 69 1017.4
20260506191519 6 0.0 0.0 0.05 0.41 0.10 69 1017.6
20260506190520 5 0.0 0.0 0.03 0.38 0.08 72 1017.3
20260506185523 3 0.0 0.0 0.03 0.41 0.08 77 1016.7
20260506184520 3 0.0 0.0 0.05 0.41 0.08 81 1016.3
20260506183520 2 0.0 0.0 0.05 0.41 0.08 82 1015.9
20260506182523 2 0.0 0.0 0.05 0.41 0.08 82 1016.0
20260506181521 3 0.0 0.0 0.03 0.38 0.05 81 1016.4
20260506180545 2 0.0 0.0 0.03 0.38 0.05 84 1015.9
20260506175521 1 0.0 0.0 0.03 0.38 0.05 86 1015.5
20260506174521 1 0.0 0.0 0.00 0.36 0.03 87 1015.2
20260506173519 1 0.0 0.0 0.00 0.36 0.03 89 1015.2
20260506172521 1 0.0 0.0 0.00 0.36 0.03 90 1014.9
20260506171522 2 0.0 0.0 0.00 0.36 0.03 88 1015.2
20260506170521 3 0.0 0.0 0.03 0.36 0.03 85 1015.5
20260506165520 3 0.0 0.0 0.03 0.38 0.03 83 1015.9
20260506164520 3 0.0 0.0 0.03 0.38 0.03 84 1015.7
20260506163520 2 0.0 0.0 0.03 0.38 0.03 88 1015.5
20260506162520 2 0.0 0.0 0.03 0.38 0.03 90 1014.7
20260506161544 1 0.0 0.0 0.03 0.38 0.03 93 1014.2
20260506160522 1 0.0 0.0 0.00 0.36 0.00 94 1014.2
20260506155520 0 0.0 0.0 0.00 0.36 0.00 95 1014.2
20260506154543 1 0.0 0.0 0.00 0.36 0.00 94 1014.2
20260506153520 0 0.0 0.0 0.00 0.36 0.00 96 1013.9
20260506152520 1 0.0 0.0 0.00 0.38 0.00 93 1014.1